Regional Weather Roundup
Issued by NWS

Home | Current Version | Previous Version | Graphics & Text | Print | Product List | Glossary On
Versions: 1 2 3 4 5 6 7 8 9 10 11 12 13 14 15 16 17 18 19 20 21 22 23 24 25 26 27 28 29 30 31 32 33 34 35 36 37 38 39 40 41 42 43 44 45 46 47 48 49 50
903
ASUS45 KTFX 231110
RWRMT
MONTANA REGIONAL WEATHER ROUNDUP
NATIONAL WEATHER SERVICE GREAT FALLS MT
500 AM MDT WED MAY 23 2018

NOTE: "FAIR" INDICATES FEW OR NO CLOUDS BELOW 12000 FEET WITH NO
SIGNIFICANT WEATHER AND/OR OBSTRUCTIONS TO VISIBILITY.

MTZ001>007-043-231200-
WEST OF THE DIVIDE

CITY           SKY/WX    TMP DP  RH WIND       PRES   REMARKS
KALISPELL      FAIR      52  43  71 N10       29.89S
MISSOULA       FAIR      52  47  83 CALM      29.91R
BUTTE          FAIR      41  39  93 E5        29.99S
MULLAN PASS    FAIR      51  35  54 E7        29.97F
ANACONDA         N/A     43  43 100 SE3       29.97S
DEER LODGE       N/A     43  43 100 W5        29.98F
HAMILTON         N/A     50  46  87 MISG      29.92S
RONAN            N/A     46  43  87 S5        29.90S
$$

MTZ008-052>055-231200-
SOUTHWEST MONTANA

CITY           SKY/WX    TMP DP  RH WIND       PRES   REMARKS
BOZEMAN        MOCLDY    48  46  93 E3        29.96R
DILLON         FAIR      42  41  96 CALM      29.96S
ENNIS          CLOUDY    46  45  93 CALM      30.00S
W YELLOWSTONE  CLOUDY    45  45 100 CALM      29.99S
$$

MTZ009-010-012-014-046-048-049-054-231200-
EAST SLOPES AND CENTRAL MONTANA

CITY           SKY/WX    TMP DP  RH WIND       PRES   REMARKS
CUT BANK       FAIR      45  43  93 W9        29.95S
GREAT FALLS    CLOUDY    52  47  83 SW7       29.95R
MALMSTROM AFB  MOCLDY    52  48  89 CALM      29.94S
HELENA         FAIR      49  47  93 W9        29.94S
AUGUSTA        MOCLDY    50  42  75 CALM      29.96S
BOWMANS CRNR   MOCLDY    49  44  85 CALM      29.94S
CHOTEAU          N/A     50  43  76 W5        29.96F
FAIRFIELD      MOCLDY    49  45  84 W3        29.94S
POWER          MOCLDY    52  47  85 CALM      29.93F
RAYNESFORD     FAIR      50  46  85 CALM      29.96S
ULM            FAIR      50  47  88 S7        29.94F
WHITE SULPHUR    N/A     43  43 100 CALM      29.97S
$$

MTZ011-013-016-021-045-047-050-051-231200-
NORTH CENTRAL MONTANA

CITY           SKY/WX    TMP DP  RH WIND       PRES   REMARKS
HAVRE          FAIR      50  46  86 CALM      29.91R
LEWISTOWN      LGT RAIN  52  51  97 CALM      29.96S
N BAR RANCH    CLOUDY    52  48  87 CALM      30.00S
DENTON         CLOUDY    55  52  90 S5        29.91S
GEYSER         CLOUDY    55  48  75 CALM      29.95F
GRASS RANGE    MOCLDY    54  50  87 CALM      29.92F
JUDITH GAP     MOCLDY    53  49  89 E3        29.96F
ROY            CLOUDY    56  49  79 W6        29.93S
STANFORD       MOCLDY    52  48  88 S3        29.97S
WINIFRED       MOCLDY    57  50  77 CALM      29.94S
$$

MTZ017>020-022>027-061-062-231200-
NORTHEAST MONTANA

CITY           SKY/WX    TMP DP  RH WIND       PRES   REMARKS
GLASGOW        FAIR      54  48  80 NE6       29.89F
GLENDIVE       FAIR      56  53  90 NE3       29.90S
JORDAN           N/A     53  50  89 CALM      29.89F
MALTA          CLEAR     50  50 100 CALM      29.89F
SIDNEY         FAIR      54  51  90 NE5       29.90S
WOLF POINT     FAIR      53  49  86 CALM      29.90F
PLENTYWOOD       N/A     55  48  76 CALM      29.92F
SCOBEY           N/A     46  35  65 CALM      29.92
$$

MTZ028>42-056>058-231200-
SOUTHCENTRAL AND SOUTHEAST MONTANA

CITY           SKY/WX    TMP DP  RH WIND       PRES   REMARKS
BAKER          FAIR      60  56  86 E9        29.90F
BILLINGS       CLOUDY    55  55 100 NW5       29.91F
LIVINGSTON     CLOUDY    51  50  96 CALM      29.95F
MILES CITY     CLOUDY    61  55  81 E3        29.87R
BIG TIMBER     CLOUDY    52  52 100 CALM      29.98S
EKALAKA          N/A     60  52  75 SE13      29.89
FORSYTH          N/A     61  61 100 W9        29.87R
HARLOWTON      MOCLDY    51  49  93 W7        29.96S
LAUREL           N/A     55  54  94 NW9       29.92R
$$

REGIONAL REPORTS...DAKOTAS

CITY           SKY/WX    TMP DP  RH WIND       PRES   REMARKS
WILLISTON      FAIR      57  51  80 NE3       29.91S
MINOT          FAIR      56  51  84 CALM      29.95R
DICKINSON      FAIR      59  55  87 E9        29.91S
BEACH          MOCLDY    52  52 100 SE5       29.93S
CROSBY         FAIR      48  50 100 CALM      29.94S
TIOGA          FAIR      52  52 100 CALM      29.95F
WATFORD CITY   FAIR      54  54 100 CALM      29.91F
BISMARCK       FAIR      60  57  89 E3        29.95S
GRAND FORKS    MOCLDY    60  56  86 S7        30.02R
FARGO          FAIR      64  56  75 SE9       30.01S
BUFFALO SD       N/A     59  55  87 E14       29.84S
RAPID CITY     FAIR      54  53  97 W7        29.90R
$$

REGIONAL REPORTS...WYOMING/IDAHO/WASHINGTON

CITY           SKY/WX    TMP DP  RH WIND       PRES   REMARKS
GILLETTE       CLOUDY    55  53  93 CALM      29.95R
SHERIDAN       MOCLDY    54  53  97 S8        29.93R
BUFFALO WY     CLOUDY    53  49  86 E7        29.95R
CODY           LGT RAIN  50  49  96 CALM      29.97
YELLOWSTONE LA   N/A     40  39  97 CALM      30.07S
IDAHO FALLS    LGT RAIN  54  49  83 S6        29.95R
SALMON         FAIR      45  43  93 CALM      29.92S
BOISE          MOCLDY    60  50  69 SE12      29.83S
SPOKANE        FAIR      61  51  70 E5        29.82S
$$

REGIONAL REPORTS...ALBERTA

CITY           SKY/WX    TMP DP  RH WIND       PRES   REMARKS
CALGARY        PTCLDY    54  41  62 VRB2      29.94F
EDMONTON       CLEAR     50  43  76 CALM      29.89S
FORT MCMURRAY  CLEAR     52  43  71 VRB2      29.85R
HIGH LEVEL     PTCLDY    59  46  63 VRB3      29.76R
LETHBRIDGE     CLEAR     48  43  81 SW10      29.92F
LLOYDMINSTER   CLEAR     52  45  76 S2        29.93S
MEDICINE HAT   PTCLDY    50  43  76 CALM      29.91R
PEACE RIVER    PTCLDY    50  41  71 N3        29.82F
PINCHER CREEK    N/A     45  39  81 W10       29.97S
WATERTON GATE    N/A     43  37  81 SW7         N/A
$$

REGIONAL REPORTS...SASKATCHEWAN

CITY           SKY/WX    TMP DP  RH WIND       PRES   REMARKS
CORONACH         N/A     43  41  93 W3          N/A
ESTEVAN        MOCLDY    50  48  93 NE8       29.94S
MOOSE JAW        N/A     46  43  87 SE7         N/A
PRINCE ALBERT  PTCLDY    48  43  81 SE3       29.98R
REGINA         PTCLDY    52  46  82 E7        29.96F
ROCKGLEN         N/A     52  45  76 SW6         N/A
SASKATOON      PTCLDY    54  48  82 S5        29.96S
SWIFT CURRENT  CLEAR     52  43  71 S7        29.92S
VAL MARIE        N/A     45  41  87 E6          N/A
$$




USA.gov is the U.S. government's official web portal to all federal, state and local government web resources and services.